| time (UTC) | temp F | wind direction | speed MPH | gust MPH | rain 1hr in | rain 24hr in | rain mn in | humidity % | barometer mb |
| 20260509012553 | 69 | 159 | 3.0 | 6.0 | 0.00 | 0.01 | 0.01 | 90 | 1007.8 |
| 20260509012053 | 70 | 190 | 3.0 | 6.0 | 0.00 | 0.01 | 0.01 | 90 | 1007.6 |
| 20260509011559 | 70 | 178 | 3.0 | 5.0 | 0.00 | 0.01 | 0.01 | 90 | 1007.6 |
| 20260509011053 | 70 | 192 | 3.0 | 6.0 | 0.00 | 0.01 | 0.01 | 89 | 1007.5 |
| 20260509010552 | 71 | 200 | 3.0 | 6.0 | 0.00 | 0.01 | 0.01 | 89 | 1007.4 |
| 20260509010052 | 71 | 178 | 3.0 | 6.0 | 0.00 | 0.01 | 0.01 | 89 | 1007.3 |
| 20260509005552 | 71 | 156 | 3.0 | 6.0 | 0.00 | 0.01 | 0.01 | 88 | 1007.4 |
| 20260509005053 | 72 | 177 | 4.0 | 8.0 | 0.00 | 0.01 | 0.01 | 88 | 1007.5 |
| 20260509004607 | 72 | 193 | 4.0 | 8.0 | 0.00 | 0.01 | 0.01 | 87 | 1007.5 |
| 20260509004051 | 72 | 201 | 4.0 | 7.0 | 0.00 | 0.01 | 0.01 | 87 | 1007.5 |
| 20260509003551 | 73 | 218 | 3.0 | 9.0 | 0.00 | 0.01 | 0.01 | 87 | 1007.5 |
| 20260509003051 | 73 | 186 | 5.0 | 11.0 | 0.00 | 0.01 | 0.01 | 85 | 1007.5 |
| 20260509002554 | 73 | 213 | 7.0 | 11.0 | 0.00 | 0.01 | 0.01 | 85 | 1007.3 |
| 20260509002050 | 74 | 195 | 3.0 | 9.0 | 0.00 | 0.01 | 0.01 | 86 | 1007.2 |
| 20260509001551 | 74 | 170 | 5.0 | 10.0 | 0.00 | 0.01 | 0.01 | 86 | 1007.2 |
| 20260509001050 | 73 | 173 | 7.0 | 10.0 | 0.00 | 0.01 | 0.01 | 86 | 1007.2 |
| 20260509000549 | 74 | 126 | 5.0 | 9.0 | 0.00 | 0.01 | 0.01 | 85 | 1007.2 |
| 20260509000049 | 74 | 134 | 5.0 | 9.0 | 0.00 | 0.01 | 0.01 | 85 | 1007.2 |
| 20260508235551 | 74 | 150 | 5.0 | 9.0 | 0.00 | 0.01 | 0.01 | 85 | 1007.3 |
| 20260508235047 | 74 | 166 | 4.0 | 9.0 | 0.00 | 0.01 | 0.01 | 86 | 1007.3 |
| 20260508234547 | 74 | 134 | 6.0 | 9.0 | 0.00 | 0.01 | 0.01 | 85 | 1007.4 |
| 20260508234048 | 74 | 109 | 6.0 | 10.0 | 0.00 | 0.01 | 0.01 | 87 | 1007.5 |
| 20260508233546 | 74 | 171 | 6.0 | 10.0 | 0.00 | 0.01 | 0.01 | 87 | 1007.6 |
| 20260508233046 | 73 | 173 | 3.0 | 7.0 | 0.00 | 0.01 | 0.01 | 87 | 1007.6 |
| 20260508232549 | 73 | 180 | 3.0 | 8.0 | 0.00 | 0.01 | 0.01 | 87 | 1007.6 |
| 20260508232044 | 73 | 178 | 5.0 | 8.0 | 0.00 | 0.01 | 0.01 | 86 | 1007.6 |
| 20260508231545 | 73 | 169 | 4.0 | 9.0 | 0.00 | 0.01 | 0.01 | 87 | 1007.5 |
| 20260508231045 | 73 | 199 | 4.0 | 7.0 | 0.00 | 0.01 | 0.01 | 86 | 1007.6 |
| 20260508230543 | 73 | 179 | 2.0 | 9.0 | 0.00 | 0.01 | 0.01 | 87 | 1007.7 |
| 20260508230044 | 73 | 189 | 5.0 | 8.0 | 0.00 | 0.01 | 0.01 | 87 | 1007.7 |
| 20260508225544 | 73 | 167 | 4.0 | 10.0 | 0.00 | 0.01 | 0.01 | 88 | 1007.6 |
| 20260508225044 | 73 | 222 | 6.0 | 11.0 | 0.00 | 0.01 | 0.01 | 87 | 1007.6 |
| 20260508224545 | 73 | 180 | 5.0 | 11.0 | 0.00 | 0.01 | 0.01 | 87 | 1007.7 |
| 20260508224043 | 73 | 192 | 6.0 | 11.0 | 0.00 | 0.01 | 0.01 | 87 | 1007.7 |
| 20260508223543 | 73 | 180 | 7.0 | 14.0 | 0.00 | 0.01 | 0.01 | 87 | 1007.7 |
| 20260508223048 | 73 | 205 | 7.0 | 14.0 | 0.00 | 0.01 | 0.01 | 86 | 1007.7 |
| 20260508222542 | 74 | 194 | 4.0 | 14.0 | 0.00 | 0.01 | 0.01 | 86 | 1007.8 |
| 20260508222043 | 74 | 176 | 8.0 | 13.0 | 0.00 | 0.01 | 0.01 | 85 | 1007.8 |
| 20260508221542 | 74 | 186 | 8.0 | 12.0 | 0.00 | 0.01 | 0.01 | 85 | 1007.8 |
| 20260508221043 | 74 | 160 | 6.0 | 12.0 | 0.00 | 0.01 | 0.01 | 87 | 1007.8 |
| 20260508220539 | 74 | 169 | 9.0 | 11.0 | 0.00 | 0.01 | 0.01 | 86 | 1007.9 |
| 20260508220039 | 73 | 206 | 7.0 | 11.0 | 0.00 | 0.01 | 0.01 | 87 | 1007.9 |
| 20260508215538 | 73 | 215 | 7.0 | 10.0 | 0.00 | 0.01 | 0.01 | 87 | 1008.0 |
| 20260508215038 | 73 | 220 | 5.0 | 8.0 | 0.00 | 0.01 | 0.01 | 87 | 1008.0 |
| 20260508214543 | 73 | 202 | 4.0 | 8.0 | 0.00 | 0.01 | 0.01 | 87 | 1008.1 |
| 20260508214036 | 73 | 168 | 5.0 | 8.0 | 0.00 | 0.01 | 0.01 | 87 | 1008.0 |
| 20260508213536 | 73 | 175 | 3.0 | 10.0 | 0.00 | 0.01 | 0.01 | 87 | 1008.1 |
| 20260508213037 | 73 | 196 | 5.0 | 10.0 | 0.00 | 0.01 | 0.01 | 86 | 1008.1 |
| 20260508212536 | 73 | 180 | 3.0 | 9.0 | 0.00 | 0.01 | 0.01 | 86 | 1008.1 |
| 20260508212036 | 74 | 164 | 5.0 | 8.0 | 0.00 | 0.01 | 0.01 | 85 | 1008.1 |
| 20260508211535 | 74 | 192 | 5.0 | 9.0 | 0.00 | 0.01 | 0.01 | 86 | 1008.2 |
| 20260508211034 | 74 | 227 | 4.0 | 10.0 | 0.00 | 0.01 | 0.01 | 85 | 1008.3 |
| 20260508210533 | 74 | 203 | 7.0 | 10.0 | 0.00 | 0.01 | 0.01 | 85 | 1008.3 |
| 20260508210033 | 74 | 221 | 5.0 | 10.0 | 0.00 | 0.01 | 0.01 | 85 | 1008.4 |
| 20260508205532 | 74 | 181 | 4.0 | 9.0 | 0.00 | 0.01 | 0.01 | 85 | 1008.4 |
| 20260508205031 | 74 | 173 | 6.0 | 11.0 | 0.00 | 0.01 | 0.01 | 85 | 1008.5 |
| 20260508204533 | 74 | 199 | 5.0 | 11.0 | 0.00 | 0.01 | 0.01 | 86 | 1008.5 |
| 20260508204035 | 74 | 188 | 6.0 | 11.0 | 0.00 | 0.01 | 0.01 | 86 | 1008.6 |
| 20260508203528 | 74 | 147 | 3.0 | 9.0 | 0.00 | 0.01 | 0.01 | 86 | 1008.6 |
| 20260508203028 | 74 | 186 | 5.0 | 9.0 | 0.00 | 0.01 | 0.01 | 86 | 1008.7 |
| 20260508202528 | 74 | 188 | 3.0 | 9.0 | 0.00 | 0.01 | 0.01 | 87 | 1008.8 |
| 20260508202027 | 73 | 167 | 4.0 | 9.0 | 0.00 | 0.01 | 0.01 | 86 | 1008.9 |
| 20260508201526 | 74 | 192 | 5.0 | 8.0 | 0.00 | 0.01 | 0.01 | 86 | 1009.0 |
| 20260508201028 | 74 | 186 | 4.0 | 8.0 | 0.00 | 0.01 | 0.01 | 86 | 1008.9 |
| 20260508200526 | 74 | 214 | 4.0 | 8.0 | 0.00 | 0.01 | 0.01 | 86 | 1008.9 |
| 20260508200026 | 74 | 196 | 3.0 | 7.0 | 0.00 | 0.01 | 0.01 | 86 | 1008.9 |
| 20260508195524 | 74 | 194 | 4.0 | 7.0 | 0.00 | 0.01 | 0.01 | 85 | 1009.1 |
| 20260508195025 | 74 | 167 | 3.0 | 6.0 | 0.00 | 0.01 | 0.01 | 86 | 1009.1 |
| 20260508194525 | 74 | 162 | 3.0 | 8.0 | 0.00 | 0.01 | 0.01 | 85 | 1009.0 |
| 20260508194023 | 74 | 154 | 4.0 | 9.0 | 0.00 | 0.01 | 0.01 | 86 | 1009.1 |
| 20260508193523 | 74 | 182 | 3.0 | 10.0 | 0.00 | 0.01 | 0.01 | 85 | 1009.1 |
| 20260508193023 | 74 | 187 | 7.0 | 10.0 | 0.00 | 0.01 | 0.01 | 86 | 1009.1 |
| 20260508192523 | 74 | 213 | 6.0 | 11.0 | 0.00 | 0.01 | 0.01 | 85 | 1009.3 |
| 20260508192023 | 74 | 209 | 6.0 | 9.0 | 0.00 | 0.01 | 0.01 | 85 | 1009.3 |
| 20260508191525 | 74 | 167 | 6.0 | 10.0 | 0.00 | 0.01 | 0.01 | 85 | 1009.3 |
| 20260508191022 | 74 | 200 | 6.0 | 10.0 | 0.00 | 0.01 | 0.01 | 85 | 1009.4 |
| 20260508190523 | 74 | 227 | 4.0 | 8.0 | 0.00 | 0.01 | 0.01 | 85 | 1009.4 |
| 20260508190026 | 75 | 189 | 3.0 | 10.0 | 0.00 | 0.01 | 0.01 | 84 | 1009.3 |
| 20260508185521 | 75 | 213 | 4.0 | 11.0 | 0.00 | 0.01 | 0.01 | 83 | 1009.3 |
| 20260508185021 | 75 | 191 | 6.0 | 12.0 | 0.00 | 0.01 | 0.01 | 85 | 1009.4 |
| 20260508184523 | 75 | 226 | 7.0 | 11.0 | 0.00 | 0.01 | 0.01 | 85 | 1009.4 |
| 20260508184018 | 75 | 213 | 7.0 | 12.0 | 0.00 | 0.01 | 0.01 | 86 | 1009.4 |
| 20260508183520 | 74 | 209 | 7.0 | 11.0 | 0.00 | 0.01 | 0.01 | 86 | 1009.5 |
| 20260508183016 | 73 | 191 | 7.0 | 16.0 | 0.00 | 0.01 | 0.01 | 89 | 1009.6 |
| 20260508182514 | 72 | 215 | 9.0 | 16.0 | 0.00 | 0.01 | 0.01 | 89 | 1009.7 |
| 20260508182012 | 72 | 200 | 7.0 | 10.0 | 0.00 | 0.01 | 0.01 | 90 | 1009.7 |
| 20260508181511 | 71 | 193 | 3.0 | 6.0 | 0.00 | 0.01 | 0.01 | 89 | 1009.8 |
| 20260508181010 | 71 | 208 | 4.0 | 6.0 | 0.00 | 0.01 | 0.01 | 90 | 1010.0 |
| 20260508180511 | 71 | 184 | 3.0 | 7.0 | 0.00 | 0.01 | 0.01 | 91 | 1010.1 |
| 20260508180016 | 71 | 215 | 3.0 | 8.0 | 0.00 | 0.01 | 0.01 | 90 | 1010.3 |
| 20260508175507 | 71 | 220 | 5.0 | 8.0 | 0.00 | 0.01 | 0.01 | 91 | 1010.5 |
| 20260508175007 | 70 | 237 | 3.0 | 8.0 | 0.00 | 0.01 | 0.01 | 92 | 1010.5 |
| 20260508174505 | 70 | 213 | 3.0 | 8.0 | 0.00 | 0.01 | 0.01 | 92 | 1010.6 |
| 20260508174004 | 69 | 219 | 4.0 | 8.0 | 0.00 | 0.01 | 0.01 | 92 | 1010.7 |
| 20260508173504 | 69 | 197 | 3.0 | 10.0 | 0.00 | 0.01 | 0.01 | 92 | 1010.8 |
| 20260508173002 | 69 | 231 | 5.0 | 10.0 | 0.00 | 0.01 | 0.01 | 91 | 1010.9 |
| 20260508172502 | 70 | 208 | 7.0 | 11.0 | 0.00 | 0.01 | 0.01 | 91 | 1010.9 |
| 20260508172002 | 70 | 215 | 5.0 | 11.0 | 0.00 | 0.01 | 0.01 | 92 | 1010.9 |
| 20260508171501 | 70 | 189 | 5.0 | 11.0 | 0.00 | 0.01 | 0.01 | 93 | 1011.0 |
| 20260508171059 | 69 | 169 | 6.0 | 11.0 | 0.00 | 0.01 | 0.01 | 94 | 1011.0 |
| 20260508170558 | 69 | 192 | 6.0 | 11.0 | 0.00 | 0.01 | 0.01 | 95 | 1011.0 |
| 20260508170058 | 69 | 195 | 3.0 | 10.0 | 0.00 | 0.01 | 0.01 | 95 | 1011.1 |
| 20260508165600 | 69 | 186 | 6.0 | 10.0 | 0.00 | 0.01 | 0.01 | 97 | 1011.2 |
| 20260508165057 | 68 | 160 | 4.0 | 9.0 | 0.00 | 0.01 | 0.01 | 99 | 1011.2 |
| 20260508164555 | 68 | 156 | 4.0 | 7.0 | 0.00 | 0.01 | 0.01 | 100 | 1011.2 |
| 20260508164053 | 67 | 179 | 1.0 | 4.0 | 0.00 | 0.01 | 0.01 | 100 | 1011.3 |
| 20260508163553 | 66 | 118 | 1.0 | 4.0 | 0.00 | 0.01 | 0.01 | 100 | 1011.5 |
| 20260508163051 | 66 | 88 | 2.0 | 6.0 | 0.00 | 0.01 | 0.01 | 100 | 1011.5 |
| 20260508162549 | 65 | 99 | 3.0 | 4.0 | 0.00 | 0.01 | 0.01 | 100 | 1011.7 |
| 20260508162048 | 64 | 134 | 1.0 | 4.0 | 0.00 | 0.01 | 0.01 | 100 | 1011.9 |
| 20260508161546 | 64 | 63 | 1.0 | 4.0 | 0.00 | 0.01 | 0.01 | 100 | 1012.0 |
| 20260508161047 | 64 | 69 | 0.0 | 4.0 | 0.00 | 0.01 | 0.01 | 100 | 1012.1 |
| 20260508160546 | 63 | 69 | 1.0 | 4.0 | 0.00 | 0.01 | 0.01 | 100 | 1012.1 |
| 20260508155542 | 63 | 79 | 1.0 | 4.0 | 0.00 | 0.01 | 0.01 | 100 | 1012.2 |
| 20260508155043 | 63 | 85 | 1.0 | 3.0 | 0.00 | 0.01 | 0.01 | 100 | 1012.2 |
| 20260508154542 | 63 | 98 | 1.0 | 3.0 | 0.00 | 0.01 | 0.01 | 100 | 1012.3 |
| 20260508154040 | 62 | 46 | 1.0 | 4.0 | 0.00 | 0.01 | 0.01 | 100 | 1012.2 |
| 20260508153540 | 62 | 42 | 2.0 | 3.0 | 0.00 | 0.01 | 0.01 | 100 | 1012.3 |
| 20260508153045 | 62 | 28 | 1.0 | 3.0 | 0.00 | 0.01 | 0.01 | 100 | 1012.5 |
| 20260508152538 | 61 | 63 | 1.0 | 4.0 | 0.00 | 0.01 | 0.01 | 100 | 1012.7 |
| 20260508152038 | 61 | 63 | 2.0 | 4.0 | 0.00 | 0.01 | 0.01 | 100 | 1012.8 |
| 20260508151538 | 61 | 64 | 2.0 | 4.0 | 0.00 | 0.01 | 0.01 | 100 | 1012.5 |
| 20260508151035 | 60 | 63 | 0.0 | 2.0 | 0.00 | 0.01 | 0.01 | 99 | 1012.6 |
| 20260508150535 | 60 | 63 | 0.0 | 2.0 | 0.00 | 0.01 | 0.01 | 99 | 1012.6 |
| 20260508150036 | 60 | 63 | 1.0 | 3.0 | 0.00 | 0.01 | 0.01 | 99 | 1012.6 |
| 20260508145534 | 60 | 63 | 1.0 | 3.0 | 0.00 | 0.01 | 0.01 | 99 | 1012.8 |
| 20260508145034 | 60 | 73 | 2.0 | 5.0 | 0.00 | 0.01 | 0.01 | 99 | 1012.7 |
| 20260508144534 | 60 | 83 | 3.0 | 5.0 | 0.00 | 0.01 | 0.01 | 99 | 1012.8 |
| 20260508144032 | 60 | 70 | 2.0 | 5.0 | 0.00 | 0.01 | 0.01 | 99 | 1012.7 |
| 20260508143532 | 59 | 76 | 3.0 | 4.0 | 0.00 | 0.01 | 0.01 | 99 | 1012.8 |
| 20260508143041 | 59 | 73 | 2.0 | 4.0 | 0.00 | 0.01 | 0.01 | 99 | 1012.9 |
| 20260508142531 | 59 | 65 | 3.0 | 3.0 | 0.00 | 0.01 | 0.01 | 99 | 1013.0 |
| 20260508142031 | 59 | 87 | 1.0 | 3.0 | 0.00 | 0.01 | 0.01 | 99 | 1013.1 |
| 20260508141542 | 59 | 75 | 1.0 | 2.0 | 0.01 | 0.01 | 0.01 | 99 | 1013.2 |
| 20260508141031 | 59 | 63 | 0.0 | 2.0 | 0.01 | 0.01 | 0.01 | 99 | 1013.2 |
| 20260508140531 | 59 | 57 | 0.0 | 2.0 | 0.01 | 0.01 | 0.01 | 99 | 1013.2 |
| 20260508140030 | 59 | 57 | 1.0 | 4.0 | 0.01 | 0.01 | 0.01 | 99 | 1013.1 |
| 20260508135533 | 59 | 57 | 1.0 | 4.0 | 0.01 | 0.01 | 0.01 | 99 | 1013.0 |
| 20260508135030 | 58 | 79 | 2.0 | 3.0 | 0.01 | 0.01 | 0.01 | 99 | 1013.1 |
| 20260508134534 | 58 | 78 | 1.0 | 3.0 | 0.01 | 0.01 | 0.01 | 99 | 1013.2 |
| 20260508134028 | 58 | 78 | 1.0 | 6.0 | 0.01 | 0.01 | 0.01 | 99 | 1013.2 |
| 20260508133529 | 58 | 78 | 3.0 | 6.0 | 0.01 | 0.01 | 0.01 | 99 | 1013.1 |
| 20260508133028 | 58 | 82 | 4.0 | 7.0 | 0.01 | 0.01 | 0.01 | 99 | 1012.9 |
| 20260508132527 | 58 | 69 | 3.0 | 7.0 | 0.01 | 0.01 | 0.01 | 99 | 1012.8 |
| 20260508132029 | 58 | 72 | 6.0 | 7.0 | 0.01 | 0.01 | 0.01 | 99 | 1012.6 |
| 20260508131527 | 58 | 49 | 5.0 | 9.0 | 0.00 | 0.00 | 0.00 | 98 | 1012.6 |
| 20260508131058 | 58 | 49 | 6.0 | 9.0 | 0.00 | 0.00 | 0.00 | 98 | 1012.5 |
| 20260508130559 | 58 | 41 | 6.0 | 9.0 | 0.00 | 0.00 | 0.00 | 99 | 1012.5 |
| 20260508125557 | 58 | 56 | 5.0 | 7.0 | 0.00 | 0.00 | 0.00 | 98 | 1012.4 |
| 20260508125057 | 58 | 65 | 4.0 | 7.0 | 0.00 | 0.00 | 0.00 | 98 | 1012.4 |
| 20260508124556 | 58 | 76 | 3.0 | 7.0 | 0.00 | 0.00 | 0.00 | 98 | 1012.6 |
| 20260508124056 | 58 | 61 | 5.0 | 8.0 | 0.00 | 0.00 | 0.00 | 98 | 1012.4 |
| 20260508123556 | 58 | 70 | 4.0 | 6.0 | 0.00 | 0.00 | 0.00 | 98 | 1012.4 |
| 20260508123056 | 58 | 61 | 4.0 | 6.0 | 0.00 | 0.00 | 0.00 | 98 | 1012.4 |
| 20260508122555 | 58 | 61 | 4.0 | 7.0 | 0.00 | 0.00 | 0.00 | 98 | 1012.3 |
| 20260508122055 | 58 | 72 | 4.0 | 7.0 | 0.00 | 0.00 | 0.00 | 98 | 1012.3 |
| 20260508121606 | 58 | 68 | 4.0 | 6.0 | 0.00 | 0.00 | 0.00 | 98 | 1012.4 |
| 20260508121054 | 58 | 52 | 4.0 | 6.0 | 0.00 | 0.00 | 0.00 | 98 | 1012.3 |
| 20260508120553 | 58 | 74 | 3.0 | 6.0 | 0.00 | 0.00 | 0.00 | 98 | 1012.4 |
| 20260508120053 | 58 | 60 | 4.0 | 6.0 | 0.00 | 0.00 | 0.00 | 98 | 1012.2 |
| 20260508115552 | 58 | 79 | 3.0 | 6.0 | 0.00 | 0.00 | 0.00 | 98 | 1012.4 |
| 20260508115052 | 58 | 66 | 4.0 | 6.0 | 0.00 | 0.00 | 0.00 | 97 | 1012.4 |
| 20260508114551 | 58 | 48 | 3.0 | 7.0 | 0.00 | 0.00 | 0.00 | 97 | 1012.6 |
| 20260508114051 | 58 | 59 | 6.0 | 7.0 | 0.00 | 0.00 | 0.00 | 97 | 1012.5 |
| 20260508113550 | 58 | 73 | 4.0 | 6.0 | 0.00 | 0.00 | 0.00 | 97 | 1012.9 |
| 20260508113051 | 58 | 61 | 4.0 | 5.0 | 0.00 | 0.00 | 0.00 | 97 | 1012.8 |
| 20260508112549 | 58 | 71 | 4.0 | 6.0 | 0.00 | 0.00 | 0.00 | 96 | 1013.0 |
| 20260508112053 | 58 | 64 | 3.0 | 6.0 | 0.00 | 0.00 | 0.00 | 96 | 1013.1 |
| 20260508111548 | 58 | 61 | 4.0 | 5.0 | 0.00 | 0.00 | 0.00 | 96 | 1013.1 |
| 20260508111050 | 58 | 82 | 3.0 | 5.0 | 0.00 | 0.00 | 0.00 | 96 | 1013.1 |
| 20260508110546 | 58 | 63 | 3.0 | 5.0 | 0.00 | 0.00 | 0.00 | 96 | 1013.1 |
| 20260508110052 | 58 | 50 | 2.0 | 6.0 | 0.00 | 0.00 | 0.00 | 95 | 1013.1 |
| 20260508105548 | 58 | 55 | 3.0 | 6.0 | 0.00 | 0.00 | 0.00 | 95 | 1013.0 |
| 20260508105051 | 58 | 36 | 3.0 | 5.0 | 0.00 | 0.00 | 0.00 | 95 | 1012.9 |
| 20260508104546 | 59 | 69 | 3.0 | 6.0 | 0.00 | 0.00 | 0.00 | 94 | 1012.8 |
| 20260508104045 | 59 | 54 | 4.0 | 8.0 | 0.00 | 0.00 | 0.00 | 94 | 1012.7 |
| 20260508103545 | 59 | 61 | 4.0 | 7.0 | 0.00 | 0.00 | 0.00 | 94 | 1012.7 |
| 20260508103044 | 59 | 56 | 4.0 | 5.0 | 0.00 | 0.00 | 0.00 | 93 | 1012.7 |
| 20260508102544 | 59 | 59 | 2.0 | 6.0 | 0.00 | 0.00 | 0.00 | 93 | 1012.8 |
| 20260508102044 | 59 | 76 | 4.0 | 6.0 | 0.00 | 0.00 | 0.00 | 93 | 1012.7 |
| 20260508101544 | 59 | 78 | 3.0 | 5.0 | 0.00 | 0.00 | 0.00 | 93 | 1012.7 |
| 20260508101043 | 59 | 81 | 2.0 | 5.0 | 0.00 | 0.00 | 0.00 | 93 | 1012.7 |
| 20260508100542 | 59 | 94 | 2.0 | 5.0 | 0.00 | 0.00 | 0.00 | 93 | 1012.7 |
| 20260508100043 | 59 | 81 | 4.0 | 6.0 | 0.00 | 0.00 | 0.00 | 93 | 1012.6 |
| 20260508095544 | 59 | 97 | 3.0 | 7.0 | 0.00 | 0.00 | 0.00 | 93 | 1012.7 |
| 20260508095042 | 59 | 51 | 6.0 | 8.0 | 0.00 | 0.00 | 0.00 | 93 | 1012.4 |
| 20260508094547 | 59 | 67 | 4.0 | 6.0 | 0.00 | 0.00 | 0.00 | 92 | 1012.7 |
| 20260508094040 | 60 | 55 | 2.0 | 3.0 | 0.00 | 0.00 | 0.00 | 92 | 1012.7 |
| 20260508093540 | 60 | 78 | 0.0 | 3.0 | 0.00 | 0.00 | 0.00 | 92 | 1012.8 |
| 20260508093040 | 60 | 69 | 2.0 | 3.0 | 0.00 | 0.00 | 0.00 | 92 | 1012.8 |
| 20260508092540 | 60 | 90 | 0.0 | 2.0 | 0.00 | 0.00 | 0.00 | 92 | 1012.9 |
| 20260508092039 | 60 | 105 | 1.0 | 3.0 | 0.00 | 0.00 | 0.00 | 92 | 1013.0 |
| 20260508091540 | 60 | 146 | 1.0 | 4.0 | 0.00 | 0.00 | 0.00 | 92 | 1013.1 |
| 20260508091038 | 60 | 144 | 2.0 | 4.0 | 0.00 | 0.00 | 0.00 | 91 | 1013.2 |
| 20260508090539 | 60 | 150 | 2.0 | 5.0 | 0.00 | 0.00 | 0.00 | 91 | 1013.0 |
| 20260508090038 | 60 | 163 | 3.0 | 5.0 | 0.00 | 0.00 | 0.00 | 91 | 1013.0 |
| 20260508085538 | 60 | 161 | 2.0 | 5.0 | 0.00 | 0.00 | 0.00 | 92 | 1012.9 |
| 20260508085038 | 60 | 142 | 2.0 | 5.0 | 0.00 | 0.00 | 0.00 | 92 | 1013.0 |
| 20260508084538 | 60 | 148 | 2.0 | 4.0 | 0.00 | 0.00 | 0.00 | 92 | 1012.9 |
| 20260508084038 | 60 | 130 | 1.0 | 5.0 | 0.00 | 0.00 | 0.00 | 92 | 1012.8 |
| 20260508083538 | 60 | 154 | 2.0 | 4.0 | 0.00 | 0.00 | 0.00 | 92 | 1012.9 |
| 20260508083115 | 60 | 126 | 1.0 | 4.0 | 0.00 | 0.00 | 0.00 | 92 | 1012.9 |
| 20260508082536 | 60 | 99 | 2.0 | 5.0 | 0.00 | 0.00 | 0.00 | 92 | 1012.9 |
| 20260508082036 | 60 | 123 | 2.0 | 5.0 | 0.00 | 0.00 | 0.00 | 92 | 1013.0 |
| 20260508081538 | 60 | 157 | 2.0 | 8.0 | 0.00 | 0.00 | 0.00 | 92 | 1013.2 |
| 20260508081035 | 60 | 132 | 4.0 | 9.0 | 0.00 | 0.00 | 0.00 | 92 | 1013.1 |
| 20260508080533 | 60 | 134 | 4.0 | 8.0 | 0.00 | 0.00 | 0.00 | 91 | 1013.4 |
| 20260508080046 | 60 | 146 | 4.0 | 8.0 | 0.00 | 0.00 | 0.00 | 91 | 1013.3 |
| 20260508075533 | 60 | 119 | 4.0 | 8.0 | 0.00 | 0.00 | 0.00 | 90 | 1013.2 |
| 20260508075031 | 60 | 136 | 4.0 | 7.0 | 0.00 | 0.00 | 0.00 | 90 | 1013.4 |
| 20260508074534 | 60 | 131 | 2.0 | 5.0 | 0.00 | 0.00 | 0.00 | 89 | 1013.5 |
| 20260508074029 | 60 | 107 | 0.0 | 2.0 | 0.00 | 0.00 | 0.00 | 89 | 1013.4 |
| 20260508073529 | 60 | 107 | 1.0 | 3.0 | 0.00 | 0.00 | 0.00 | 89 | 1013.4 |
| 20260508073029 | 60 | 107 | 1.0 | 4.0 | 0.00 | 0.00 | 0.00 | 88 | 1013.5 |
| 20260508072526 | 60 | 82 | 2.0 | 4.0 | 0.00 | 0.00 | 0.00 | 88 | 1013.5 |
| 20260508072024 | 60 | 86 | 1.0 | 4.0 | 0.00 | 0.00 | 0.00 | 88 | 1013.5 |
| 20260508071530 | 60 | 78 | 2.0 | 4.0 | 0.00 | 0.00 | 0.00 | 88 | 1013.4 |
| 20260508071020 | 60 | 71 | 2.0 | 4.0 | 0.00 | 0.00 | 0.00 | 88 | 1013.4 |
| 20260508070522 | 60 | 76 | 2.0 | 4.0 | 0.00 | 0.00 | 0.00 | 88 | 1013.5 |
| 20260508070018 | 60 | 91 | 2.0 | 5.0 | 0.00 | 0.00 | 0.00 | 88 | 1013.6 |
| 20260508065515 | 60 | 74 | 3.0 | 5.0 | 0.00 | 0.00 | 0.00 | 88 | 1013.7 |
| 20260508065015 | 60 | 78 | 1.0 | 3.0 | 0.00 | 0.00 | 0.00 | 88 | 1013.8 |
| 20260508064535 | 60 | 78 | 2.0 | 4.0 | 0.00 | 0.00 | 0.00 | 88 | 1013.7 |
| 20260508064012 | 60 | 68 | 2.0 | 4.0 | 0.00 | 0.00 | 0.00 | 88 | 1013.7 |
| 20260508063511 | 60 | 67 | 2.0 | 4.0 | 0.00 | 0.00 | 0.00 | 88 | 1013.8 |
| 20260508063008 | 60 | 100 | 2.0 | 3.0 | 0.00 | 0.00 | 0.00 | 88 | 1014.0 |
| 20260508062508 | 60 | 122 | 2.0 | 4.0 | 0.00 | 0.00 | 0.00 | 88 | 1014.0 |
| 20260508062007 | 60 | 169 | 2.0 | 4.0 | 0.00 | 0.00 | 0.00 | 88 | 1014.1 |
| 20260508061505 | 60 | 227 | 1.0 | 3.0 | 0.00 | 0.00 | 0.00 | 88 | 1014.1 |
| 20260508061005 | 60 | 77 | 0.0 | 2.0 | 0.00 | 0.00 | 0.00 | 88 | 1014.0 |
| 20260508060506 | 60 | 77 | 0.0 | 2.0 | 0.00 | 0.00 | 0.00 | 88 | 1013.9 |
| 20260508060005 | 60 | 77 | 0.0 | 4.0 | 0.00 | 0.00 | 0.00 | 88 | 1013.9 |
| 20260508055507 | 59 | 77 | 1.0 | 5.0 | 0.00 | 0.00 | 0.00 | 88 | 1013.8 |
| 20260508055006 | 59 | 70 | 3.0 | 5.0 | 0.00 | 0.00 | 0.00 | 88 | 1013.7 |
| 20260508054504 | 59 | 71 | 3.0 | 5.0 | 0.00 | 0.00 | 0.00 | 88 | 1013.6 |
| 20260508054004 | 60 | 63 | 2.0 | 6.0 | 0.00 | 0.00 | 0.00 | 88 | 1013.6 |
| 20260508053504 | 60 | 57 | 3.0 | 9.0 | 0.00 | 0.00 | 0.00 | 88 | 1014.0 |
| 20260508053003 | 60 | 44 | 4.0 | 12.0 | 0.00 | 0.00 | 0.00 | 88 | 1013.8 |
| 20260508052506 | 60 | 59 | 9.0 | 12.0 | 0.00 | 0.00 | 0.00 | 88 | 1013.6 |
| 20260508052004 | 60 | 55 | 7.0 | 10.0 | 0.00 | 0.00 | 0.00 | 88 | 1013.7 |
| 20260508051603 | 60 | 65 | 6.0 | 10.0 | 0.00 | 0.00 | 0.00 | 88 | 1013.9 |
| 20260508051059 | 60 | 71 | 4.0 | 10.0 | 0.00 | 0.00 | 0.00 | 88 | 1014.0 |
| 20260508050557 | 60 | 83 | 6.0 | 9.0 | 0.00 | 0.00 | 0.00 | 88 | 1013.9 |
| 20260508050100 | 60 | 34 | 1.0 | 3.0 | 0.00 | 0.00 | 0.00 | 88 | 1014.7 |
| 20260508045555 | 60 | 10 | 1.0 | 3.0 | 0.00 | 0.00 | 0.00 | 88 | 1014.8 |
| 20260508045058 | 60 | 10 | 0.0 | 6.0 | 0.00 | 0.00 | 0.00 | 88 | 1015.2 |
| 20260508044555 | 60 | 22 | 3.0 | 8.0 | 0.00 | 0.00 | 0.00 | 88 | 1015.0 |
| 20260508044058 | 60 | 13 | 5.0 | 7.0 | 0.00 | 0.00 | 0.00 | 88 | 1014.7 |
| 20260508043554 | 60 | 12 | 4.0 | 8.0 | 0.00 | 0.00 | 0.00 | 87 | 1014.8 |
| 20260508043055 | 60 | 24 | 3.0 | 9.0 | 0.00 | 0.00 | 0.00 | 87 | 1014.5 |
| 20260508042555 | 60 | 69 | 5.0 | 9.0 | 0.00 | 0.00 | 0.00 | 87 | 1014.3 |
| 20260508042058 | 60 | 61 | 6.0 | 7.0 | 0.00 | 0.00 | 0.00 | 87 | 1014.3 |
| 20260508041558 | 60 | 49 | 4.0 | 5.0 | 0.00 | 0.00 | 0.00 | 87 | 1014.4 |
| 20260508041054 | 60 | 10 | 3.0 | 7.0 | 0.00 | 0.00 | 0.00 | 87 | 1014.7 |
| 20260508040553 | 60 | 32 | 2.0 | 8.0 | 0.00 | 0.00 | 0.00 | 86 | 1014.6 |
| 20260508040055 | 60 | 53 | 4.0 | 9.0 | 0.00 | 0.00 | 0.00 | 86 | 1014.3 |
| 20260508035553 | 60 | 46 | 5.0 | 9.0 | 0.00 | 0.00 | 0.00 | 86 | 1014.4 |
| 20260508035052 | 60 | 32 | 6.0 | 9.0 | 0.00 | 0.00 | 0.00 | 86 | 1014.7 |
| 20260508034555 | 60 | 22 | 3.0 | 6.0 | 0.00 | 0.00 | 0.00 | 85 | 1014.8 |
| 20260508034051 | 60 | 348 | 2.0 | 8.0 | 0.00 | 0.00 | 0.00 | 85 | 1014.8 |
| 20260508033555 | 60 | 14 | 6.0 | 8.0 | 0.00 | 0.00 | 0.00 | 85 | 1014.6 |
| 20260508033058 | 60 | 20 | 3.0 | 8.0 | 0.00 | 0.00 | 0.00 | 85 | 1014.7 |
| 20260508032552 | 60 | 329 | 3.0 | 8.0 | 0.00 | 0.00 | 0.00 | 85 | 1014.5 |
| 20260508032054 | 60 | 320 | 3.0 | 10.0 | 0.00 | 0.00 | 0.00 | 85 | 1014.9 |
| 20260508031551 | 60 | 77 | 1.0 | 13.0 | 0.00 | 0.00 | 0.00 | 85 | 1014.4 |
| 20260508031050 | 60 | 89 | 6.0 | 16.0 | 0.00 | 0.00 | 0.00 | 86 | 1013.2 |
| 20260508030550 | 59 | 71 | 11.0 | 20.0 | 0.00 | 0.00 | 0.00 | 86 | 1012.5 |
| 20260508030107 | 59 | 81 | 13.0 | 20.0 | 0.00 | 0.00 | 0.00 | 86 | 1011.8 |
| 20260508025549 | 59 | 73 | 15.0 | 19.0 | 0.00 | 0.00 | 0.00 | 87 | 1012.3 |
| 20260508025052 | 59 | 62 | 12.0 | 15.0 | 0.00 | 0.00 | 0.00 | 87 | 1013.1 |
| 20260508024558 | 59 | 69 | 10.0 | 13.0 | 0.00 | 0.00 | 0.00 | 88 | 1013.7 |
| 20260508024050 | 59 | 52 | 7.0 | 12.0 | 0.00 | 0.00 | 0.00 | 88 | 1013.7 |
| 20260508023549 | 59 | 82 | 8.0 | 12.0 | 0.00 | 0.00 | 0.00 | 88 | 1014.0 |
| 20260508023050 | 59 | 51 | 8.0 | 11.0 | 0.00 | 0.00 | 0.00 | 88 | 1014.2 |
| 20260508022549 | 59 | 77 | 7.0 | 11.0 | 0.00 | 0.00 | 0.00 | 88 | 1014.1 |
| 20260508022049 | 59 | 51 | 8.0 | 11.0 | 0.00 | 0.00 | 0.00 | 88 | 1014.1 |
| 20260508021549 | 59 | 49 | 9.0 | 11.0 | 0.00 | 0.00 | 0.00 | 89 | 1013.9 |
| 20260508021049 | 59 | 61 | 7.0 | 11.0 | 0.00 | 0.00 | 0.00 | 88 | 1013.9 |
| 20260508020548 | 60 | 77 | 6.0 | 10.0 | 0.00 | 0.00 | 0.00 | 89 | 1013.9 |
| 20260508020049 | 60 | 65 | 6.0 | 9.0 | 0.00 | 0.00 | 0.00 | 89 | 1014.0 |
| 20260508015548 | 60 | 32 | 4.0 | 6.0 | 0.00 | 0.00 | 0.00 | 89 | 1014.3 |
| 20260508015048 | 60 | 41 | 2.0 | 5.0 | 0.00 | 0.00 | 0.00 | 89 | 1014.3 |
| 20260508014548 | 60 | 26 | 3.0 | 5.0 | 0.00 | 0.00 | 0.00 | 89 | 1014.2 |
| 20260508014048 | 60 | 26 | 2.0 | 4.0 | 0.00 | 0.00 | 0.00 | 88 | 1014.3 |
| 20260508013547 | 60 | 34 | 1.0 | 4.0 | 0.00 | 0.00 | 0.00 | 88 | 1014.2 |
| 20260508013048 | 60 | 40 | 2.0 | 3.0 | 0.00 | 0.00 | 0.00 | 88 | 1014.0 |